www.pogodaiklimat.ru

Погода и климат >> Архив погоды >> Хорватия >> Split-Marjan


ПОГОДА в Split-Marjan

  • Прогноз погоды в Split-Marjan
  • Монитор погоды в Split-Marjan
  • Климат города

АРХИВ ПОГОДЫ в Split-Marjan

Время (UTC), дата Ветер
(напр.,м/с)
 
Видим.   Явления Облачность Т
(С)
Тd
(С)
f
(%)
Тe
(С)
Тes
(С)
Комфортность P
(гПа)
Po
(гПа)
Тmin
(С)
Tmax
(С)
R
(мм)
R24
(мм)
S
(см)
03 13.11 ЮВ 8 20 км 8/8 800 м
[Sc]
+15.6 +9.2 66 +14 +14 997.1 982.2
04 13.11 Ю 9 20 км 8/8 600 м
[Sc]
+15.5 +10.6 73 +13 +13 996.1 981.2
05 13.11 Ю 10 20 км 8/8 600 м
[Sc]
+15.6 +10.9 74 +13 +13 995.8 980.9
06 13.11 Ю 13 30 км 8/8 800 м
[Sc Ac lent]
+16.2 +11.4 73 +14 +14 995.4 980.5 +15.0
08 13.11 Ю 11
{18}
30 км 9/5 600 м
[Cu Sc Ac As]
+16.2 +9.9 66 +14 +14 995.6 980.8
07 13.11 Ю 11
{19}
30 км 9/8 600 м
[Sc Ac As]
+16.3 +11.0 71 +14 +14 995.1 980.3
09 13.11 Ю 12-17
{19}
30 км 9/6 800 м
[Cu Sc Ac As]
+16.3 +10.2 67 +14 +14 995.5 980.6
10 13.11 Ю 10
{19}
35 км 9/8 600 м
[Cu Sc Ac As]
+16.4 +10.7 69 +15 +15 995.5 980.6
11 13.11 Ю 13
{19}
30 км 10/8 600 м
[Cu Sc Ac As]
+16.4 +9.3 63 +14 +14 995.4 980.5
12 13.11 Ю 12
{19}
25 км 10/5 800 м
[Cu Sc Ac As]
+16.6 +10.9 69 +15 +15 995.5 980.7
14 13.11 Ю 12
{19}
20 км 9/6 600 м
[Cu Sc As op]
+16.4 +9.5 64 +14 +14 996.6 981.8
13 13.11 Ю 9
{17}
25 км 10/4 600 м
[Cu Sc Ac As]
+16.5 +10.1 66 +15 +15 995.9 981.1
15 13.11 ЮЗ 12-17
{19}
10 км слабый дождь 10/6 800 м
[Frnb As op]
+15.2 +9.9 71 +13 +13 997.6 982.7
18 13.11 СВ 8 10 км слабый дождь 10/8 800 м
[Frnb As op]
+11.6 +9.4 86 +8 +8 999.8 984.6 +16.7 4
19 13.11 СВ 14
{23}
8000 м слабый дождь 10/8 600 м
[Frnb As op]
+8.4 +5.6 83 +3 +3 1000.1 984.8
20 13.11 СВ 13
{21}
20 км в посл. час дождь 10/9 600 м
[Frnb As op]
+8.1 +4.2 76 +2 +2 1001.6 986.2
21 13.11 В 9
{22}
20 км {дождь} 10/8 800 м
[Cu Sc As op]
+8.2 +4.5 77 +3 +3 1002.7 987.3
00 14.11 СВ 11
{25}
20 км 10/8 800 м
[Frnb As op]
+8.6 +2.4 65 +4 +4 1004.2 988.8 0.4
03 14.11 СВ 15
{25}
20 км 10/8 800 м
[Frnb As op]
+8.4 0.0 55 +3 +3 1006.2 990.8
05 14.11 СВ 15
{24}
20 км 9/6 600 м
[Frnb As op]
+8.6 +0.5 57 +3 +3 1006.9 991.5
04 14.11 СВ 15
{25}
20 км 9/6 600 м
[Frnb As op]
+8.0 +1.6 64 +2 +2 1006.3 990.9
06 14.11 СВ 13
{22}
40 км 10/8 1230 м
[Frnb As op]
+9.2 +0.2 53 +4 +4 1007.8 992.4 +7.8 0.4
07 14.11 СВ 13 20 км слабый дождь 10/3 1500 м
[Sc As op]
+8.4 +1.3 61 +3 +3 1009.3 993.8
08 14.11 СВ 15
{27}
30 км слабый дождь 10/5 1000 м
[Sc As op]
+7.2 +2.4 72 +1 +1 1009.5 993.9
09 14.11 СВ 14-24
{27}
40 км слабый дождь 9/4 1230 м
[Sc As op]
+8.2 +1.3 62 +3 +3 1010.1 994.6
11 14.11 СВ 13 40 км слабый дождь 10/5 1500 м
[Sc As op]
+10.0 +1.3 55 +5 +5 1009.9 994.5
10 14.11 СВ 13
{25}
35 км в посл. час дождь 10/4 1500 м
[Sc As op]
+9.6 +0.7 54 +5 +5 1010.0 994.5
12 14.11 СВ 13-23
{25}
30 км слабый дождь 10/3 1500 м
[Sc As op]
+10.4 +0.7 51 +6 +6 1009.8 994.4 0.8
13 14.11 СВ 11
{21}
20 км слабый дождь 10/6 1500 м
[Sc As op]
+10.4 +1.3 53 +6 +6 1010.7 995.3
14 14.11 СВ 13 40 км слабый дождь 10/4 1500 м
[Sc As op]
+9.7 +1.7 57 +5 +5 1011.0 995.6
15 14.11 СВ 14-20
{23}
35 км слабый дождь 10/4 1500 м
[Sc As op]
+9.2 +2.3 62 +4 +4 1011.4 996.0
18 14.11 СВ 15-24
{25}
20 км слабый дождь 10/5 1230 м
[Sc As op]
+9.7 +2.7 62 +5 +5 1012.3 996.8 +10.8 2
20 14.11 СВ 14
{26}
20 км слабый дождь 10/6 600 м
[Sc As op]
+9.8 +3.3 64 +5 +5 1012.5 997.0
19 14.11 СВ 16
{26}
20 км слабый дождь 10/4 1000 м
[Sc As op]
+9.8 +2.1 59 +5 +5 1011.9 996.4
21 14.11 СВ 14-23
{26}
20 км в посл. час дождь 10/5 1230 м
[Sc As op]
+10.1 +2.9 61 +5 +5 1012.6 997.2
00 15.11 СВ 13
{24}
20 км {дождь} 10/4 1230 м
[Sc As op]
+11.8 +2.6 53 +8 +8 1011.8 996.5
03 15.11 СВ 12-19
{28}
20 км 10/5 1230 м
[Sc As op]
+11.4 +1.5 51 +7 +7 1012.6 997.2
04 15.11 СВ 11
{19}
20 км 10/8 1000 м
[Sc As op]
+12.5 +2.5 50 +9 +9 1012.6 997.3
05 15.11 СВ 12
{20}
20 км 10/5 600 м
[Sc As op]
+12.0 +2.9 54 +8 +8 1012.9 997.6
06 15.11 СВ 11-18
{20}
40 км 9/6 1230 м
[Sc Ac As]
+12.2 +2.1 50 +9 +9 1013.8 998.5 +9.6 0.0
08 15.11 СВ 12-20
{22}
40 км 9/5 1000 м
[Cu Sc Ac As]
+12.1 +2.2 51 +8 +8 1014.8 999.4
07 15.11 СВ 11 40 км 9/6 1000 м
[Cu Sc Ac As]
+12.0 +2.1 51 +8 +8 1014.3 999.0
09 15.11 СВ 11-18
{20}
35 км 10/8 1230 м
[Cu Sc Ac As]
+11.8 +2.6 53 +8 +8 1015.6 1000.2
10 15.11 СВ 10-17
{20}
30 км 10/8 1000 м
[Frnb As op]
+12.1 +2.5 52 +9 +9 1015.6 1000.2
11 15.11 СВ 11-18
{19}
30 км 10/8 1000 м
[Cu Sc As op]
+12.4 +2.9 52 +9 +9 1015.9 1000.5
12 15.11 В 8
{20}
30 км в посл. час дождь 9/6 1230 м
[Cu Sc As op]
+12.2 +5.1 62 +9 +9 1016.0 1000.6
14 15.11 СВ 8 30 км слабый дождь 9/6 1000 м
[Cu Sc As op]
+11.7 +6.0 68 +8 +8 1016.3 1000.9
13 15.11 В 7 30 км слабый дождь 10/6 1000 м
[Sc As op]
+12.0 +5.3 64 +9 +9 1016.2 1000.8
15 15.11 В 7 30 км в посл. час дождь 9/8 1230 м
[Cu Sc As op]
+11.8 +5.5 65 +9 +9 1016.4 1001.0
18 15.11 СВ 7 20 км {дождь} 8/8 1230 м
[Sc]
+12.5 +3.5 54 +10 +10 1016.9 1001.6 +12.7 0.3
19 15.11 СВ 7 20 км 4/4 1500 м
[Sc]
+12.0 +3.4 56 +9 +9 1017.1 1001.7
20 15.11 СВ 6 20 км 4/3 1500 м
[Sc Ac trans]
+12.0 +3.1 54 +10 +10 1017.6 1002.2
21 15.11 СВ 7 20 км 3/1 1500 м
[Sc Ci fib]
+11.6 +2.8 55 +9 +9 1017.2 1001.7
00 16.11 СВ 7 20 км 9/0
[As op]
+10.8 +2.3 56 +8 +8 1016.5 1001.0
03 16.11 СВ 8 20 км 10/0
[Ac As]
+11.0 +1.8 53 +8 +8 1015.6 1000.2
05 16.11 СВ 5 20 км в посл. час дождь 9/0
[Ac As]
+11.3 +1.9 52 +9 +9 1015.0 999.5
04 16.11 СВ 8 20 км слабый дождь 10/0
[As op]
+10.9 +2.2 55 +8 +8 1015.3 999.9
06 16.11 СВ 8 50 км {дождь} 9/0
[Ac As]
+11.9 +1.4 49 +9 +9 1015.3 1000.0 +10.5 0.0
07 16.11 СВ 7 50 км 9/3 1000 м
[Sc Ac As]
+11.9 +1.9 50 +9 +9 1015.8 1000.4
08 16.11 СВ 5 50 км 9/3 1000 м
[Sc Ac As]
+12.5 +2.2 49 +11 +11 1015.6 1000.2
09 16.11 В 6 50 км 9/3 1230 м
[Sc Ac As]
+13.1 +2.8 50 +11 +11 1015.5 1000.2
11 16.11 В 3 30 км 5/3 1000 м
[Sc Ac As Ci sp]
+15.0 +4.6 50 +14 +17 1016.1 1000.9
10 16.11 СВ 4 50 км 8/3 1000 м
[Sc Ac As]
+14.1 +4.4 52 +13 +14 1015.6 1000.3
12 16.11 ЮВ 4 35 км 8/4 1230 м
[Cu Sc Ac trans Ci sp]
+16.1 +6.3 52 +15 +16 1015.9 1000.7
13 16.11 СВ 3 35 км 9/3 1000 м
[Cu Sc Ac As]
+15.9 +5.1 49 +16 +16 1015.1 999.9
14 16.11 С 2 35 км 9/3 1000 м
[Cu Sc Ac As]
+15.8 +7.0 56 +16 +16 1015.1 999.9
15 16.11 В 3 35 км 8/3 1230 м
[Cu Sc Ac As Ci sp]
+15.4 +5.1 50 +15 +15 1014.8 999.6
18 16.11 СВ 5 20 км 3/3 1000 м
[Sc]
+13.1 +3.3 51 +11 +11 1015.7 1000.3 +16.1
20 16.11 СВ 6 20 км 3/0
[Ci sp]
+12.8 +3.4 53 +11 +11 1016.1 1000.7
19 16.11 СВ 6 20 км 3/1 1000 м
[Sc Ci sp]
+13.2 +3.7 52 +11 +11 1016.0 1000.6
21 16.11 СВ 7 20 км 3/0
[Ci sp]
+12.2 +3.1 54 +10 +10 1015.9 1000.5
00 17.11 СВ 8 20 км ясно +11.8 +3.1 55 +9 +9 1015.3 999.9
03 17.11 СВ 6 20 км ясно +10.9 +2.7 57 +8 +8 1014.6 999.2
04 17.11 СВ 7 20 км ясно +10.8 +2.6 57 +8 +8 1014.1 998.7
05 17.11 СВ 7 25 км 1/0
[Ci sp]
+10.8 +2.6 57 +8 +8 1014.3 998.9
06 17.11 СВ 6 45 км 3/0
[Ci sp]
+10.4 +2.0 56 +7 +7 1014.5 999.0 +10.4
08 17.11 СВ 6 45 км 1/0
[Ci fib]
+11.8 +2.8 54 +9 +10 1014.8 999.4
07 17.11 СВ 9 45 км 3/0
[Ci fib]
+11.0 +2.3 55 +7 +7 1014.6 999.2
09 17.11 СВ 7 50 км 3/0
[Ci fib]
+13.3 +2.8 49 +11 +12 1014.7 999.4
10 17.11 В 5 50 км 3/0
[Ci sp]
+14.4 +3.0 46 +13 +15 1014.5 999.3
11 17.11 ЮВ 1 50 км 4/0
[Ci sp]
+15.4 +4.4 48 +16 +21 1014.2 999.0
12 17.11 ЮЗ 4 45 км 3/0
[Ci sp]
+16.1 +5.4 49 +15 +18 1013.7 998.6
14 17.11 Ю 1 50 км 8/0
[Ac trans Ci sp]
+15.4 +5.1 50 +16 +17 1013.3 998.1
13 17.11 ЮЗ 3 45 км 6/0
[Ac trans Ci sp]
+16.2 +4.8 47 +16 +18 1013.5 998.3
15 17.11 СЗ 2 50 км 5/0
[Ci sp]
+14.7 +4.5 50 +15 +15 1013.2 998.0
18 17.11 СВ 6 20 км 4/0
[Ci sp]
+13.1 +2.8 50 +11 +11 1013.6 998.3 +17.2
19 17.11 СВ 7 20 км 3/0
[Ci sp]
+12.5 +3.3 53 +10 +10 1013.6 998.3
20 17.11 СВ 6 20 км 3/0
[Ci sp]
+12.4 +3.4 54 +10 +10 1013.9 998.6
21 17.11 СВ 5 20 км 3/0
[Ci sp]
+12.7 +3.0 52 +11 +11 1014.0 998.7
00 18.11 СВ 5 20 км 3/0
[Ci sp]
+12.0 +1.8 50 +10 +10 1013.8 998.4
03 18.11 СВ 5 20 км ясно +11.0 +2.6 56 +9 +9 1013.2 997.8
05 18.11 СВ 7 25 км ясно +11.0 +2.1 54 +8 +8 1012.9 997.5
06 18.11 СВ 8 50 км 3/0
[Ci sp]
+10.8 +2.3 56 +7 +7 1013.0 997.6 +10.8
07 18.11 СВ 9 50 км 1/0
[Ci fib]
+11.1 +1.9 53 +8 +8 1013.5 998.1
08 18.11 СВ 6 50 км 3/0
[Ac trans Ci fib]
+12.0 +2.6 53 +10 +10 1013.9 998.5
09 18.11 СВ 6 50 км 3/0
[Ac trans Cc]
+13.3 +2.8 49 +11 +12 1013.9 998.6
10 18.11 В 4 50 км 5/0
[Ac trans Cc]
+14.5 +2.9 46 +13 +16 1013.9 998.6
11 18.11 ЮЗ 2 50 км 5/0
[Ci fib]
+15.1 +4.7 50 +15 +19 1013.5 998.3
12 18.11 ЮЗ 3 50 км 3/0
[Ci fib]
+15.6 +4.7 48 +15 +18 1013.0 997.9
13 18.11 ЮЗ 3 50 км 3/0
[Ac trans Ci sp]
+15.5 +5.0 50 +15 +17 1012.7 997.5
14 18.11 З 1 50 км 6/0
[Ac trans Ci sp]
+14.8 +4.6 50 +15 +17 1012.6 997.4
15 18.11 Ю 1 50 км 6/0
[Ac trans Ci sp]
+14.3 +5.1 54 +15 +15 1012.4 997.2
18 18.11 СВ 8 20 км 1/0
[Ci sp]
+11.6 +1.8 51 +9 +9 1012.9 997.6 +15.7
19 18.11 СВ 8 20 км 1/0
[Ci fib]
+11.2 +1.8 52 +8 +8 1013.1 997.7
20 18.11 СВ 8 20 км ясно +11.2 +1.5 51 +8 +8 1013.1 997.7
21 18.11 СВ 7 20 км 1/0
[Ci sp]
+10.8 +1.5 53 +8 +8 1013.3 997.9
00 19.11 СВ 8 20 км ясно +10.2 +1.3 54 +7 +7 1012.7 997.3
03 19.11 СВ 5 20 км 4/0
[Ci sp]
+9.6 +1.0 55 +7 +7 1012.2 996.7
04 19.11 СВ 3 20 км 1/0
[Ci fib]
+9.6 +1.3 56 +8 +8 1012.2 996.7
05 19.11 СВ 4 20 км 1/0
[Ci fib]
+9.7 +1.1 55 +7 +7 1012.0 996.5
06 19.11 СВ 3 45 км 8/0
[Ac lent Ci sp]
+9.1 +1.2 58 +7 +7 1011.9 996.4 +9.1
07 19.11 СВ 2 45 км 8/0
[As trans Ci sp]
+9.5 +1.7 58 +8 +8 1012.3 996.9
08 19.11 СВ 3 40 км 3/0
[Ci sp]
+9.6 +1.8 58 +8 +9 1011.9 996.4
09 19.11 Ю 2 40 км 8/0
[Ac lent Ci sp]
+11.7 +4.7 62 +11 +13 1011.7 996.3
10 19.11 ЮЗ 2 40 км 9/0
[Ac As Ci sp]
+12.6 +5.8 63 +12 +14 1011.7 996.4
11 19.11 В 1 35 км 9/8 1000 м
[Sc Ac trans Ci sp]
+12.4 +4.6 59 +13 +13 1011.0 995.7
12 19.11 С 1 40 км 9/5 1230 м
[Sc Ac trans Ci sp]
+12.6 +4.4 57 +13 +14 1010.4 995.2
13 19.11 ЮЗ 2 40 км 9/8 1000 м
[Cu Sc Ac trans Ci fib]
+12.8 +5.4 61 +12 +13 1010.3 995.0
14 19.11 СЗ 1 40 км 9/8 1000 м
[Cu Sc Ac trans Ci sp]
+12.2 +5.3 63 +12 +13 1010.1 994.8
15 19.11 З 2 40 км 9/8 1230 м
[Cu Sc Ac trans]
+12.1 +4.5 60 +11 +11 1009.7 994.4
18 19.11 С 5 20 км 1/0
[Ac trans]
+10.7 +2.7 58 +8 +8 1010.5 995.1 +13.2
19 19.11 С 5 20 км 1/0
[Ac trans]
+10.7 +2.5 57 +8 +8 1011.0 995.6
20 19.11 С 4 20 км зарница 3/3 1000 м
[Cb cap]
+10.2 +2.3 58 +8 +8 1011.7 996.3
21 19.11 СВ 6 20 км 3/3 1230 м
[Sc]
+9.3 +1.4 58 +6 +6 1012.2 996.8
00 20.11 СВ 9 20 км ясно +9.9 -1.2 46 +6 +6 1013.0 997.5

 

Местоположение метеостанции Split-Marjan (Хорватия): широта 43.52 долгота 16.43 высота над уровнем моря 128 м.

В архиве по умолчанию представлена погода в Split-Marjan за последнюю неделю. Архивные данные за месяц целиком и за предыдущие месяцы, начиная с января 2011 года, Вы можете получить, выбрав интересующий диапазон дат из раскрывающегося списка и нажав кнопку "Ввод!".

Внимание! Время в таблицах - всемирное. Для получения местного времени необходимо прибавить поправку, которая в Split-Marjan равна 1 ч.

Смотрите также архив погоды в соседних городах и на ближайших метеорологических станциях:

Погода в Split-Resnik (Хорватия) (11 км)
Погода в Hvar (Хорватия) (39 км)
Погода в Sibenik (Хорватия) (47 км)
Погода в Makarska (Хорватия) (55 км)
Погода в Livno (Босния и Герцеговина) (59 км)
Погода в Komiza (Хорватия) (59 км)
Погода в Lastovo (Хорватия) (92 км)
Погода в Ploce (Хорватия) (98 км)
Погода в Bugojno (Босния и Герцеговина) (104 км)
Погода в Zadar Zemunik (Хорватия) (108 км)

Пояснения к столбцам:

Ветер - указаны скорость ветра в м/с - средняя за 10 мин, порывы в срок и между сроками (в фигурных скобках) и направление, откуда дует ветер: С - северный, СВ - северо-восточный, В - восточный, ЮВ - юго-восточный, Ю - южный, ЮЗ - юго-западный, З - западный, СЗ - северо-западный.
Видимость - горизонтальная дальность видимости в метрах или километрах. При видимости от 1 до 10 км при отсутствии осадков обычно наблюдается дымка, при ухудшении видимости до 1 км и менее - туман. В сухую погоду видимость может ухудшаться дымом, пылью или мглою.
Явления - указаны атмосферные явления, наблюдавшиеся в срок или в последний час перед сроком; фигурными скобками обозначены явления, наблюдавшиеся между сроками (за 1-3 часа до срока); квадратными скобками обозначены град или гололедные отложения с указанием их диаметра в мм.
Облачность - указаны через наклонную черту общая и нижняя облачность в баллах и высота нижней границы облаков в метрах; квадратными скобками обозначены формы облаков: Ci - перистые, Cs - перисто-слоистые, Cc - перисто-кучевые, Ac - высококучевые, As - высокослоистые, Sc - слоисто-кучевые, Ns - слоисто-дождевые, Cu - кучевые, Cb - кучево-дождевые. Подробнее классификацию облаков см. в Атласе облаков (PDF).
T - Температура воздуха - температура, измеренная на высоте 2 м над землей.
Td - Температура точки росы - температура, при понижении до которой содержащийся в воздухе водяной пар достигнет насыщения.
f - Относительная влажность воздуха - влажноcть воздуха, измеренная на высоте 2 м над землей.
Te - Эффективная температура - температура, которую ощущает одетый по сезону человек в тени. Характеристика душности погоды. При расчете учитывается влияние влажности воздуха и скорости ветра на теплоощущения человека.
Tes - Эффективная температура на солнце - температура, которую ощущает человек, с поправкой на солнечный нагрев. Характеристика знойности погоды. Зависит от высоты солнца над горизонтом, облачности и скорости ветра. Ночью, в пасмурную погоду, а также при ветре 12 м/с и более поправка равна нулю.
P - Атмосферное давление - приведенное к уровню моря атмосферное давление.
Po - Атмосферное давление - измеренное на уровне метеостанции атмосферное давление.
Tmin - Минимальная температура - минимум температуры воздуха на высоте 2 м над землей.
Tmax - Максимальная температура - максимум температуры воздуха на высоте 2 м над землей.
R - Количество осадков - Количество выпавших осадков за период времени, мм. При наведении курсора мыши на число - период времени, за который выпало указанное количество осадков.
R24 - Количество осадков - Количество выпавших осадков за 24 часа, мм.
S - Снежный покров - Высота снежного покрова, см. При наведении курсора мыши на число - состояние снежного покрова и степень покрытия местности в баллах.